Location: *
(41.0833°N, 73.4167°W)
Time: 02:27:35
(UTC+00:00)

SJ-6F - Pass Details

Date: 22 October 2019
Orbit: 571 x 594 km, 97.7° (Epoch: 15 November)

Event Time Altitude Azimuth Distance (km) Brightness Sun altitude
Rises 09:22:04 0° 11° (N) 2,822 8.1 -21.5°
Reaches altitude 10° 09:24:14 10° 10° (N) 1,913 7.2 -21.1°
Maximum altitude 09:28:23 81° 283° (WNW) 594 4.3 -20.3°
Enters shadow 09:31:35 16° 198° (SSW) 1,518 6.3 -19.7°
